This demonstration page uses our WeatherBlox Daily Observations layout. Learn more.

39.92423, -83.80882

Hourly Observations for June 18, 2016

Temp ( °F °C ) Dew Point ( °F °C ) Humidity (%) Winds ( mph kmh ) Pressure ( in mb ) Visibility ( mi km ) Precip ( " mm )
12:56 am 00:56 Clear 65 18.3 53 11.6 65 65 E 5 7 30.08 1019 10 16.0934 0 0
1:56 am 01:56 Clear 64 17.7 50 10 61 61 NE 5 7 30.09 1019 10 16.0934 0 0
2:56 am 02:56 Clear 63 17.2 51 10.5 65 65 N 5 7 30.1 1019 10 16.0934 0 0
3:56 am 03:56 Clear 61 16.1 52 11.1 72 72 ENE 5 7 30.11 1020 10 16.0934 0 0
4:56 am 04:56 Clear 60 15.5 52 11.1 75 75 ENE 5 7 30.13 1020 10 16.0934 0 0
5:56 am 05:56 Clear 60 15.5 53 11.6 78 78 NE 6 9 30.16 1021 10 16.0934 0 0
6:56 am 06:56 Sunny 61 16.1 55 12.7 80 80 ENE 5 7 30.16 1021 10 16.0934 0 0
7:56 am 07:56 Sunny 68 20 59 15 73 73 E 6 9 30.18 1022 10 16.0934 0 0
8:56 am 08:56 Sunny 73 22.7 60 15.5 64 64 ESE 7 11 30.22 1023 10 16.0934 0 0
9:56 am 09:56 Sunny 77 25 59 15 54 54 E 8 13 30.24 1024 10 16.0934 0 0
10:56 am 10:56 Sunny 80 26.6 56 13.3 44 44 ESE 7 11 30.25 1024 10 16.0934 0 0
11:56 am 11:56 Sunny 81 27.2 55 12.7 41 41 E 8 13 30.26 1025 10 16.0934 0 0
12:56 pm 12:56 Sunny 83 28.3 52 11.1 34 34 E 13 20 30.24 1024 10 16.0934 0 0
1:56 pm 13:56 Sunny 85 29.4 54 12.2 35 35 SE 12 19 30.23 1024 10 16.0934 0 0
2:56 pm 14:56 Sunny 86 30 53 11.6 32 32 SSE 12 19 30.22 1023 10 16.0934 0 0
3:56 pm 15:56 Sunny 87 30.5 55 12.7 34 34 ESE 13 20 30.23 1024 10 16.0934 0 0
4:56 pm 16:56 Sunny 87 30.5 55 12.7 34 34 ESE 9 15 30.23 1024 10 16.0934 0 0
5:56 pm 17:56 Sunny 87 30.5 56 13.3 35 35 E 7 11 30.22 1023 10 16.0934 0 0
6:56 pm 18:56 Mostly Sunny 86 30 56 13.3 36 36 E 12 19 30.22 1023 10 16.0934 0 0
7:56 pm 19:56 Mostly Sunny 83 28.3 58 14.4 43 43 SE 7 11 30.22 1023 10 16.0934 0 0
8:56 pm 20:56 Mostly Cloudy 78 25.5 57 13.8 48 48 ESE 3 6 30.23 1024 10 16.0934 0 0
9:56 pm 21:56 Mostly Clear 74 23.3 59 15 60 60 SE 3 6 30.25 1024 10 16.0934 0 0
10:56 pm 22:56 Mostly Cloudy 71 21.6 59 15 66 66 Calm 30.27 1025 10 16.0934 0 0
11:56 pm 23:56 Clear 72 22.2 60 15.5 66 66 ESE 3 6 30.27 1025 10 16.0934 0 0

Powered by AerisWeather